Year,Month,Day,Hour,Minute,Value (Times are PST for temperature in C)
2012,06,20,00,00,12.80
2012,06,20,00,01,12.80
2012,06,20,00,02,12.80
2012,06,20,00,03,12.80
2012,06,20,00,04,12.80
2012,06,20,00,05,12.70
2012,06,20,00,06,12.70
2012,06,20,00,07,12.70
2012,06,20,00,08,12.70
2012,06,20,00,09,12.60
2012,06,20,00,10,12.60
2012,06,20,00,11,12.60
2012,06,20,00,12,12.60
2012,06,20,00,13,12.50
2012,06,20,00,14,12.50
2012,06,20,00,15,12.60
2012,06,20,00,16,12.60
2012,06,20,00,17,12.60
2012,06,20,00,18,12.60
2012,06,20,00,19,12.60
2012,06,20,00,20,12.70
2012,06,20,00,21,12.70
2012,06,20,00,22,12.70
2012,06,20,00,23,12.70
2012,06,20,00,24,12.70
2012,06,20,00,25,12.70
2012,06,20,00,26,12.80
2012,06,20,00,27,12.80
2012,06,20,00,28,12.80
2012,06,20,00,29,12.80
2012,06,20,00,30,12.80
2012,06,20,00,31,12.80
2012,06,20,00,32,12.80
2012,06,20,00,33,12.70
2012,06,20,00,34,12.70
2012,06,20,00,35,12.70
2012,06,20,00,36,12.70
2012,06,20,00,37,12.70
2012,06,20,00,38,12.70
2012,06,20,00,39,12.60
2012,06,20,00,40,12.60
2012,06,20,00,41,12.60
2012,06,20,00,42,12.60
2012,06,20,00,43,12.60
2012,06,20,00,44,12.60
2012,06,20,00,45,12.60
2012,06,20,00,46,12.60
2012,06,20,00,47,12.60
2012,06,20,00,48,12.50
2012,06,20,00,49,12.50
2012,06,20,00,50,12.50
2012,06,20,00,51,12.40
2012,06,20,00,52,12.40
2012,06,20,00,53,12.40
2012,06,20,00,54,12.30
2012,06,20,00,55,12.30
2012,06,20,00,56,12.30
2012,06,20,00,57,12.30
2012,06,20,00,58,12.20
2012,06,20,00,59,12.20
2012,06,20,01,00,12.10
2012,06,20,01,01,12.10
2012,06,20,01,02,12.10
2012,06,20,01,03,12.00
2012,06,20,01,04,12.00
2012,06,20,01,05,12.00
2012,06,20,01,06,12.10
2012,06,20,01,07,12.10
2012,06,20,01,08,12.10
2012,06,20,01,09,12.10
2012,06,20,01,10,12.10
2012,06,20,01,11,12.10
2012,06,20,01,12,12.10
2012,06,20,01,13,12.10
2012,06,20,01,14,12.00
2012,06,20,01,15,12.00
2012,06,20,01,16,12.00
2012,06,20,01,17,11.90
2012,06,20,01,18,11.90
2012,06,20,01,19,11.80
2012,06,20,01,20,11.80
2012,06,20,01,21,11.70
2012,06,20,01,22,11.60
2012,06,20,01,23,11.50
2012,06,20,01,24,11.50
2012,06,20,01,25,11.40
2012,06,20,01,26,11.30
2012,06,20,01,27,11.20
2012,06,20,01,28,11.20
2012,06,20,01,29,11.20
2012,06,20,01,30,11.10
2012,06,20,01,31,11.10
2012,06,20,01,32,11.10
2012,06,20,01,33,11.10
2012,06,20,01,34,11.10
2012,06,20,01,35,11.10
2012,06,20,01,36,11.10
2012,06,20,01,37,11.10
2012,06,20,01,38,11.10
2012,06,20,01,39,11.10
2012,06,20,01,40,11.00
2012,06,20,01,41,11.00
2012,06,20,01,42,11.00
2012,06,20,01,43,11.00
2012,06,20,01,44,10.90
2012,06,20,01,45,10.90
2012,06,20,01,46,10.90
2012,06,20,01,47,10.90
2012,06,20,01,48,10.90
2012,06,20,01,49,11.00
2012,06,20,01,50,11.00
2012,06,20,01,51,11.10
2012,06,20,01,52,11.10
2012,06,20,01,53,11.10
2012,06,20,01,54,11.20
2012,06,20,01,55,11.20
2012,06,20,01,56,11.20
2012,06,20,01,57,11.20
2012,06,20,01,58,11.20
2012,06,20,01,59,11.20
2012,06,20,02,00,11.20
2012,06,20,02,01,11.10
2012,06,20,02,02,11.10
2012,06,20,02,03,11.10
2012,06,20,02,04,11.10
2012,06,20,02,05,11.10
2012,06,20,02,06,11.00
2012,06,20,02,07,11.00
2012,06,20,02,08,11.00
2012,06,20,02,09,10.90
2012,06,20,02,10,11.00
2012,06,20,02,11,11.00
2012,06,20,02,12,11.00
2012,06,20,02,13,11.10
2012,06,20,02,14,11.10
2012,06,20,02,15,11.10
2012,06,20,02,16,11.20
2012,06,20,02,17,11.20
2012,06,20,02,18,11.20
2012,06,20,02,19,11.20
2012,06,20,02,20,11.30
2012,06,20,02,21,11.30
2012,06,20,02,22,11.30
2012,06,20,02,23,11.30
2012,06,20,02,24,11.40
2012,06,20,02,25,11.40
2012,06,20,02,26,11.40
2012,06,20,02,27,11.40
2012,06,20,02,28,11.40
2012,06,20,02,29,11.40
2012,06,20,02,30,11.40
2012,06,20,02,31,11.40
2012,06,20,02,32,11.40
2012,06,20,02,33,11.40
2012,06,20,02,34,11.30
2012,06,20,02,35,11.30
2012,06,20,02,36,11.30
2012,06,20,02,37,11.30
2012,06,20,02,38,11.30
2012,06,20,02,39,11.30
2012,06,20,02,40,11.30
2012,06,20,02,41,11.40
2012,06,20,02,42,11.30
2012,06,20,02,43,11.40
2012,06,20,02,44,11.40
2012,06,20,02,45,11.40
2012,06,20,02,46,11.40
2012,06,20,02,47,11.30
2012,06,20,02,48,11.30
2012,06,20,02,49,11.30
2012,06,20,02,50,11.30
2012,06,20,02,51,11.30
2012,06,20,02,52,11.30
2012,06,20,02,53,11.30
2012,06,20,02,54,11.30
2012,06,20,02,55,11.20
2012,06,20,02,56,11.20
2012,06,20,02,57,11.20
2012,06,20,02,58,11.20
2012,06,20,02,59,11.20
2012,06,20,03,00,11.20
2012,06,20,03,01,11.20
2012,06,20,03,02,11.20
2012,06,20,03,03,11.20
2012,06,20,03,04,11.20
2012,06,20,03,05,11.20
2012,06,20,03,06,11.20
2012,06,20,03,07,11.10
2012,06,20,03,08,11.10
2012,06,20,03,09,11.10
2012,06,20,03,10,11.10
2012,06,20,03,11,11.10
2012,06,20,03,12,11.10
2012,06,20,03,13,11.10
2012,06,20,03,14,11.10
2012,06,20,03,15,11.10
2012,06,20,03,16,11.10
2012,06,20,03,17,11.00
2012,06,20,03,18,11.00
2012,06,20,03,19,10.90
2012,06,20,03,20,10.90
2012,06,20,03,21,10.80
2012,06,20,03,22,10.80
2012,06,20,03,23,10.80
2012,06,20,03,24,10.70
2012,06,20,03,25,10.70
2012,06,20,03,26,10.70
2012,06,20,03,27,10.70
2012,06,20,03,28,10.60
2012,06,20,03,29,10.60
2012,06,20,03,30,10.60
2012,06,20,03,31,10.60
2012,06,20,03,32,10.60
2012,06,20,03,33,10.60
2012,06,20,03,34,10.60
2012,06,20,03,35,10.60
2012,06,20,03,36,10.60
2012,06,20,03,37,10.60
2012,06,20,03,38,10.60
2012,06,20,03,39,10.60
2012,06,20,03,40,10.60
2012,06,20,03,41,10.60
2012,06,20,03,42,10.60
2012,06,20,03,43,10.60
2012,06,20,03,44,10.60
2012,06,20,03,45,10.50
2012,06,20,03,46,10.50
2012,06,20,03,47,10.40
2012,06,20,03,48,10.40
2012,06,20,03,49,10.40
2012,06,20,03,50,10.30
2012,06,20,03,51,10.30
2012,06,20,03,52,10.30
2012,06,20,03,53,10.30
2012,06,20,03,54,10.30
2012,06,20,03,55,10.30
2012,06,20,03,56,10.30
2012,06,20,03,57,10.30
2012,06,20,03,58,10.30
2012,06,20,03,59,10.30
2012,06,20,04,00,10.30
2012,06,20,04,01,10.20
2012,06,20,04,02,10.20
2012,06,20,04,03,10.20
2012,06,20,04,04,10.20
2012,06,20,04,05,10.20
2012,06,20,04,06,10.10
2012,06,20,04,07,10.10
2012,06,20,04,08,10.10
2012,06,20,04,09,10.10
2012,06,20,04,10,10.00
2012,06,20,04,11,10.00
2012,06,20,04,12,10.00
2012,06,20,04,13,10.00
2012,06,20,04,14,9.90
2012,06,20,04,15,9.90
2012,06,20,04,16,9.90
2012,06,20,04,17,9.90
2012,06,20,04,18,9.90
2012,06,20,04,19,9.90
2012,06,20,04,20,9.90
2012,06,20,04,21,9.90
2012,06,20,04,22,9.90
2012,06,20,04,23,9.90
2012,06,20,04,24,9.90
2012,06,20,04,25,9.90
2012,06,20,04,26,9.90
2012,06,20,04,27,9.90
2012,06,20,04,28,9.90
2012,06,20,04,29,9.90
2012,06,20,04,30,9.90
2012,06,20,04,31,9.80
2012,06,20,04,32,9.80
2012,06,20,04,33,9.70
2012,06,20,04,34,9.70
2012,06,20,04,35,9.60
2012,06,20,04,36,9.60
2012,06,20,04,37,9.50
2012,06,20,04,38,9.40
2012,06,20,04,39,9.40
2012,06,20,04,40,9.40
2012,06,20,04,41,9.40
2012,06,20,04,42,9.40
2012,06,20,04,43,9.30
2012,06,20,04,44,9.30
2012,06,20,04,45,9.30
2012,06,20,04,46,9.30
2012,06,20,04,47,9.30
2012,06,20,04,48,9.30
2012,06,20,04,49,9.20
2012,06,20,04,50,9.20
2012,06,20,04,51,9.20
2012,06,20,04,52,9.20
2012,06,20,04,53,9.10
2012,06,20,04,54,9.10
2012,06,20,04,55,9.10
2012,06,20,04,56,9.10
2012,06,20,04,57,9.10
2012,06,20,04,58,9.10
2012,06,20,04,59,9.10
2012,06,20,05,00,9.10
2012,06,20,05,01,9.10
2012,06,20,05,02,9.10
2012,06,20,05,03,9.20
2012,06,20,05,04,9.20
2012,06,20,05,05,9.20
2012,06,20,05,06,9.20
2012,06,20,05,07,9.10
2012,06,20,05,08,9.10
2012,06,20,05,09,9.10
2012,06,20,05,10,9.10
2012,06,20,05,11,9.10
2012,06,20,05,12,9.10
2012,06,20,05,13,9.10
2012,06,20,05,14,9.10
2012,06,20,05,15,9.00
2012,06,20,05,16,9.00
2012,06,20,05,17,8.90
2012,06,20,05,18,8.90
2012,06,20,05,19,8.90
2012,06,20,05,20,8.90
2012,06,20,05,21,8.80
2012,06,20,05,22,8.80
2012,06,20,05,23,8.80
2012,06,20,05,24,8.80
2012,06,20,05,25,8.80
2012,06,20,05,26,8.90
2012,06,20,05,27,8.90
2012,06,20,05,28,8.90
2012,06,20,05,29,8.90
2012,06,20,05,30,8.90
2012,06,20,05,31,8.90
2012,06,20,05,32,8.90
2012,06,20,05,33,9.00
2012,06,20,05,34,9.00
2012,06,20,05,35,9.10
2012,06,20,05,36,9.10
2012,06,20,05,37,9.10
2012,06,20,05,38,9.10
2012,06,20,05,39,9.10
2012,06,20,05,40,9.20
2012,06,20,05,41,9.20
2012,06,20,05,42,9.20
2012,06,20,05,43,9.20
2012,06,20,05,44,9.20
2012,06,20,05,45,9.20
2012,06,20,05,46,9.20
2012,06,20,05,47,9.30
2012,06,20,05,48,9.30
2012,06,20,05,49,9.30
2012,06,20,05,50,9.30
2012,06,20,05,51,9.30
2012,06,20,05,52,9.40
2012,06,20,05,53,9.40
2012,06,20,05,54,9.40
2012,06,20,05,55,9.40
2012,06,20,05,56,9.40
2012,06,20,05,57,9.40
2012,06,20,05,58,9.40
2012,06,20,05,59,9.50
2012,06,20,06,00,9.50
2012,06,20,06,01,9.60
2012,06,20,06,02,9.60
2012,06,20,06,03,9.60
2012,06,20,06,04,9.60
2012,06,20,06,05,9.60
2012,06,20,06,06,9.60
2012,06,20,06,07,9.60
2012,06,20,06,08,9.60
2012,06,20,06,09,9.70
2012,06,20,06,10,9.70
2012,06,20,06,11,9.70
2012,06,20,06,12,9.70
2012,06,20,06,13,9.70
2012,06,20,06,14,9.80
2012,06,20,06,15,9.80
2012,06,20,06,16,9.80
2012,06,20,06,17,9.90
2012,06,20,06,18,9.90
2012,06,20,06,19,9.90
2012,06,20,06,20,10.00
2012,06,20,06,21,10.10
2012,06,20,06,22,10.10
2012,06,20,06,23,10.20
2012,06,20,06,24,10.20
2012,06,20,06,25,10.30
2012,06,20,06,26,10.30
2012,06,20,06,27,10.30
2012,06,20,06,28,10.40
2012,06,20,06,29,10.50
2012,06,20,06,30,10.50
2012,06,20,06,31,10.60
2012,06,20,06,32,10.60
2012,06,20,06,33,10.70
2012,06,20,06,34,10.70
2012,06,20,06,35,10.80
2012,06,20,06,36,10.80
2012,06,20,06,37,10.90
2012,06,20,06,38,10.90
2012,06,20,06,39,10.90
2012,06,20,06,40,11.00
2012,06,20,06,41,11.00
2012,06,20,06,42,11.10
2012,06,20,06,43,11.10
2012,06,20,06,44,11.20
2012,06,20,06,45,11.20
2012,06,20,06,46,11.20
2012,06,20,06,47,11.30
2012,06,20,06,48,11.30
2012,06,20,06,49,11.30
2012,06,20,06,50,11.40
2012,06,20,06,51,11.40
2012,06,20,06,52,11.40
2012,06,20,06,53,11.50
2012,06,20,06,54,11.50
2012,06,20,06,55,11.60
2012,06,20,06,56,11.60
2012,06,20,06,57,11.70
2012,06,20,06,58,11.70
2012,06,20,06,59,11.70
2012,06,20,07,00,11.80
2012,06,20,07,01,11.80
2012,06,20,07,02,11.80
2012,06,20,07,03,11.80
2012,06,20,07,04,11.90
2012,06,20,07,05,11.90
2012,06,20,07,06,11.90
2012,06,20,07,07,12.00
2012,06,20,07,08,12.00
2012,06,20,07,09,12.10
2012,06,20,07,10,12.20
2012,06,20,07,11,12.20
2012,06,20,07,12,12.20
2012,06,20,07,13,12.30
2012,06,20,07,14,12.30
2012,06,20,07,15,12.40
2012,06,20,07,16,12.40
2012,06,20,07,17,12.40
2012,06,20,07,18,12.50
2012,06,20,07,19,12.50
2012,06,20,07,20,12.50
2012,06,20,07,21,12.50
2012,06,20,07,22,12.60
2012,06,20,07,23,12.60
2012,06,20,07,24,12.60
2012,06,20,07,25,12.60
2012,06,20,07,26,12.70
2012,06,20,07,27,12.70
2012,06,20,07,28,12.70
2012,06,20,07,29,12.70
2012,06,20,07,30,12.80
2012,06,20,07,31,12.80
2012,06,20,07,32,12.80
2012,06,20,07,33,12.80
2012,06,20,07,34,12.80
2012,06,20,07,35,12.80
2012,06,20,07,36,12.80
2012,06,20,07,37,12.80
2012,06,20,07,38,12.80
2012,06,20,07,39,12.80
2012,06,20,07,40,12.80
2012,06,20,07,41,12.80
2012,06,20,07,42,12.80
2012,06,20,07,43,12.70
2012,06,20,07,44,12.70
2012,06,20,07,45,12.70
2012,06,20,07,46,12.80
2012,06,20,07,47,12.70
2012,06,20,07,48,12.70
2012,06,20,07,49,12.70
2012,06,20,07,50,12.70
2012,06,20,07,51,12.70
2012,06,20,07,52,12.70
2012,06,20,07,53,12.70
2012,06,20,07,54,12.70
2012,06,20,07,55,12.70
2012,06,20,07,56,12.80
2012,06,20,07,57,12.80
2012,06,20,07,58,12.80
2012,06,20,07,59,12.80
2012,06,20,08,00,12.80
2012,06,20,08,01,12.90
2012,06,20,08,02,12.90
2012,06,20,08,03,13.00
2012,06,20,08,04,13.00
2012,06,20,08,05,13.10
2012,06,20,08,06,13.10
2012,06,20,08,07,13.10
2012,06,20,08,08,13.10
2012,06,20,08,09,13.20
2012,06,20,08,10,13.20
2012,06,20,08,11,13.20
2012,06,20,08,12,13.20
2012,06,20,08,13,13.20
2012,06,20,08,14,13.30
2012,06,20,08,15,13.30
2012,06,20,08,16,13.40
2012,06,20,08,17,13.40
2012,06,20,08,18,13.40
2012,06,20,08,19,13.50
2012,06,20,08,20,13.50
2012,06,20,08,21,13.60
2012,06,20,08,22,13.60
2012,06,20,08,23,13.50
2012,06,20,08,24,13.50
2012,06,20,08,25,13.40
2012,06,20,08,26,13.40
2012,06,20,08,27,13.40
2012,06,20,08,28,13.40
2012,06,20,08,29,13.40
2012,06,20,08,30,13.50
2012,06,20,08,31,13.60
2012,06,20,08,32,13.70
2012,06,20,08,33,13.70
2012,06,20,08,34,13.80
2012,06,20,08,35,13.90
2012,06,20,08,36,13.80
2012,06,20,08,37,13.80
2012,06,20,08,38,13.80
2012,06,20,08,39,13.90
2012,06,20,08,40,13.90
2012,06,20,08,41,13.90
2012,06,20,08,42,13.90
2012,06,20,08,43,13.90
2012,06,20,08,44,13.90
2012,06,20,08,45,13.90
2012,06,20,08,46,13.90
2012,06,20,08,47,13.90
2012,06,20,08,48,13.90
2012,06,20,08,49,14.00
2012,06,20,08,50,14.10
2012,06,20,08,51,14.10
2012,06,20,08,52,14.10
2012,06,20,08,53,14.30
2012,06,20,08,54,14.40
2012,06,20,08,55,14.40
2012,06,20,08,56,14.40
2012,06,20,08,57,14.50
2012,06,20,08,58,14.60
2012,06,20,08,59,14.70
2012,06,20,09,00,14.70
2012,06,20,09,01,14.80
2012,06,20,09,02,14.80
2012,06,20,09,03,14.90
2012,06,20,09,04,14.90
2012,06,20,09,05,14.90
2012,06,20,09,06,15.00
2012,06,20,09,07,15.10
2012,06,20,09,08,15.00
2012,06,20,09,09,15.00
2012,06,20,09,10,14.90
2012,06,20,09,11,14.80
2012,06,20,09,12,14.80
2012,06,20,09,13,14.70
2012,06,20,09,14,14.70
2012,06,20,09,15,14.70
2012,06,20,09,16,14.70
2012,06,20,09,17,14.80
2012,06,20,09,18,14.80
2012,06,20,09,19,14.90
2012,06,20,09,20,14.90
2012,06,20,09,21,15.00
2012,06,20,09,22,15.10
2012,06,20,09,23,15.10
2012,06,20,09,24,15.20
2012,06,20,09,25,15.30
2012,06,20,09,26,15.50
2012,06,20,09,27,15.60
2012,06,20,09,28,15.50
2012,06,20,09,29,15.40
2012,06,20,09,30,15.40
2012,06,20,09,31,15.30
2012,06,20,09,32,15.30
2012,06,20,09,33,15.30
2012,06,20,09,34,15.30
2012,06,20,09,35,15.20
2012,06,20,09,36,15.20
2012,06,20,09,37,15.10
2012,06,20,09,38,15.10
2012,06,20,09,39,15.00
2012,06,20,09,40,15.10
2012,06,20,09,41,15.10
2012,06,20,09,42,15.10
2012,06,20,09,43,15.10
2012,06,20,09,44,15.10
2012,06,20,09,45,15.10
2012,06,20,09,46,15.10
2012,06,20,09,47,15.10
2012,06,20,09,48,15.20
2012,06,20,09,49,15.40
2012,06,20,09,50,15.40
2012,06,20,09,51,15.40
2012,06,20,09,52,15.40
2012,06,20,09,53,15.40
2012,06,20,09,54,15.40
2012,06,20,09,55,15.40
2012,06,20,09,56,15.40
2012,06,20,09,57,15.40
2012,06,20,09,58,15.50
2012,06,20,09,59,15.60
2012,06,20,10,00,15.60
2012,06,20,10,01,15.60
2012,06,20,10,02,15.60
2012,06,20,10,03,15.50
2012,06,20,10,04,15.50
2012,06,20,10,05,15.40
2012,06,20,10,06,15.30
2012,06,20,10,07,15.30
2012,06,20,10,08,15.40
2012,06,20,10,09,15.60
2012,06,20,10,10,15.80
2012,06,20,10,11,15.90
2012,06,20,10,12,15.90
2012,06,20,10,13,15.90
2012,06,20,10,14,15.90
2012,06,20,10,15,16.00
2012,06,20,10,16,16.20
2012,06,20,10,17,16.30
2012,06,20,10,18,16.50
2012,06,20,10,19,16.50
2012,06,20,10,20,16.60
2012,06,20,10,21,16.60
2012,06,20,10,22,16.50
2012,06,20,10,23,16.40
2012,06,20,10,24,16.30
2012,06,20,10,25,16.40
2012,06,20,10,26,16.50
2012,06,20,10,27,16.60
2012,06,20,10,28,16.60
2012,06,20,10,29,16.40
2012,06,20,10,30,16.40
2012,06,20,10,31,16.30
2012,06,20,10,32,16.20
2012,06,20,10,33,16.20
2012,06,20,10,34,16.10
2012,06,20,10,35,16.10
2012,06,20,10,36,16.10
2012,06,20,10,37,16.10
2012,06,20,10,38,16.10
2012,06,20,10,39,16.10
2012,06,20,10,40,16.10
2012,06,20,10,41,16.10
2012,06,20,10,42,16.20
2012,06,20,10,43,16.30
2012,06,20,10,44,16.40
2012,06,20,10,45,16.50
2012,06,20,10,46,16.50
2012,06,20,10,47,16.40
2012,06,20,10,48,16.50
2012,06,20,10,49,16.40
2012,06,20,10,50,16.40
2012,06,20,10,51,16.40
2012,06,20,10,52,16.40
2012,06,20,10,53,16.30
2012,06,20,10,54,16.20
2012,06,20,10,55,16.20
2012,06,20,10,56,16.30
2012,06,20,10,57,16.20
2012,06,20,10,58,16.20
2012,06,20,10,59,16.20
2012,06,20,11,00,16.20
2012,06,20,11,01,16.20
2012,06,20,11,02,16.40
2012,06,20,11,03,16.50
2012,06,20,11,04,16.60
2012,06,20,11,05,16.60
2012,06,20,11,06,16.60
2012,06,20,11,07,16.70
2012,06,20,11,08,16.60
2012,06,20,11,09,16.60
2012,06,20,11,10,16.60
2012,06,20,11,11,16.60
2012,06,20,11,12,16.60
2012,06,20,11,13,16.70
2012,06,20,11,14,16.90
2012,06,20,11,15,17.00
2012,06,20,11,16,17.10
2012,06,20,11,17,17.00
2012,06,20,11,18,16.90
2012,06,20,11,19,16.80
2012,06,20,11,20,16.80
2012,06,20,11,21,16.90
2012,06,20,11,22,16.90
2012,06,20,11,23,16.80
2012,06,20,11,24,16.80
2012,06,20,11,25,16.80
2012,06,20,11,26,16.90
2012,06,20,11,27,16.90
2012,06,20,11,28,16.90
2012,06,20,11,29,16.90
2012,06,20,11,30,17.00
2012,06,20,11,31,17.10
2012,06,20,11,32,17.20
2012,06,20,11,33,17.30
2012,06,20,11,34,17.40
2012,06,20,11,35,17.70
2012,06,20,11,36,17.80
2012,06,20,11,37,17.70
2012,06,20,11,38,17.50
2012,06,20,11,39,17.40
2012,06,20,11,40,17.50
2012,06,20,11,41,17.60
2012,06,20,11,42,17.60
2012,06,20,11,43,17.60
2012,06,20,11,44,17.80
2012,06,20,11,45,17.90
2012,06,20,11,46,17.80
2012,06,20,11,47,17.80
2012,06,20,11,48,17.90
2012,06,20,11,49,18.00
2012,06,20,11,50,18.00
2012,06,20,11,51,18.00
2012,06,20,11,52,17.90
2012,06,20,11,53,17.70
2012,06,20,11,54,17.60
2012,06,20,11,55,17.60
2012,06,20,11,56,17.60
2012,06,20,11,57,17.60
2012,06,20,11,58,17.70
2012,06,20,11,59,17.60
2012,06,20,12,00,17.60
2012,06,20,12,01,17.50
2012,06,20,12,02,17.60
2012,06,20,12,03,17.80
2012,06,20,12,04,17.80
2012,06,20,12,05,17.90
2012,06,20,12,06,17.80
2012,06,20,12,07,17.80
2012,06,20,12,08,17.70
2012,06,20,12,09,17.70
2012,06,20,12,10,17.70
2012,06,20,12,11,17.70
2012,06,20,12,12,17.70
2012,06,20,12,13,17.60
2012,06,20,12,14,17.60
2012,06,20,12,15,17.50
2012,06,20,12,16,17.40
2012,06,20,12,17,17.30
2012,06,20,12,18,17.30
2012,06,20,12,19,17.20
2012,06,20,12,20,17.20
2012,06,20,12,21,17.30
2012,06,20,12,22,17.30
2012,06,20,12,23,17.30
2012,06,20,12,24,17.40
2012,06,20,12,25,17.50
2012,06,20,12,26,17.60
2012,06,20,12,27,17.60
2012,06,20,12,28,17.70
2012,06,20,12,29,17.70
2012,06,20,12,30,17.70
2012,06,20,12,31,17.70
2012,06,20,12,32,17.60
2012,06,20,12,33,17.60
2012,06,20,12,34,17.50
2012,06,20,12,35,17.40
2012,06,20,12,36,17.30
2012,06,20,12,37,17.40
2012,06,20,12,38,17.40
2012,06,20,12,39,17.50
2012,06,20,12,40,17.60
2012,06,20,12,41,17.70
2012,06,20,12,42,17.80
2012,06,20,12,43,17.90
2012,06,20,12,44,17.90
2012,06,20,12,45,17.90
2012,06,20,12,46,18.00
2012,06,20,12,47,18.10
2012,06,20,12,48,18.00
2012,06,20,12,49,18.00
2012,06,20,12,50,17.90
2012,06,20,12,51,17.80
2012,06,20,12,52,17.80
2012,06,20,12,53,17.90
2012,06,20,12,54,17.80
2012,06,20,12,55,17.90
2012,06,20,12,56,18.00
2012,06,20,12,57,18.20
2012,06,20,12,58,18.20
2012,06,20,12,59,18.20
2012,06,20,13,00,18.10
2012,06,20,13,01,18.10
2012,06,20,13,02,18.10
2012,06,20,13,03,18.00
2012,06,20,13,04,17.90
2012,06,20,13,05,17.90
2012,06,20,13,06,18.00
2012,06,20,13,07,18.00
2012,06,20,13,08,18.10
2012,06,20,13,09,18.20
2012,06,20,13,10,18.20
2012,06,20,13,11,18.20
2012,06,20,13,12,18.10
2012,06,20,13,13,18.00
2012,06,20,13,14,17.90
2012,06,20,13,15,17.80
2012,06,20,13,16,17.80
2012,06,20,13,17,17.80
2012,06,20,13,18,17.70
2012,06,20,13,19,17.70
2012,06,20,13,20,17.90
2012,06,20,13,21,18.10
2012,06,20,13,22,18.20
2012,06,20,13,23,18.40
2012,06,20,13,24,18.60
2012,06,20,13,25,18.60
2012,06,20,13,26,18.60
2012,06,20,13,27,18.50
2012,06,20,13,28,18.30
2012,06,20,13,29,18.20
2012,06,20,13,30,18.10
2012,06,20,13,31,18.00
2012,06,20,13,32,18.00
2012,06,20,13,33,18.10
2012,06,20,13,34,18.30
2012,06,20,13,35,18.50
2012,06,20,13,36,18.60
2012,06,20,13,37,18.80
2012,06,20,13,38,19.20
2012,06,20,13,39,19.50
2012,06,20,13,40,19.70
2012,06,20,13,41,19.80
2012,06,20,13,42,19.80
2012,06,20,13,43,19.60
2012,06,20,13,44,19.40
2012,06,20,13,45,19.20
2012,06,20,13,46,19.00
2012,06,20,13,47,18.90
2012,06,20,13,48,18.80
2012,06,20,13,49,18.60
2012,06,20,13,50,18.50
2012,06,20,13,51,18.50
2012,06,20,13,52,18.50
2012,06,20,13,53,18.60
2012,06,20,13,54,18.60
2012,06,20,13,55,18.60
2012,06,20,13,56,18.60
2012,06,20,13,57,18.70
2012,06,20,13,58,18.70
2012,06,20,13,59,18.70
2012,06,20,14,00,18.60
2012,06,20,14,01,18.60
2012,06,20,14,02,18.70
2012,06,20,14,03,18.80
2012,06,20,14,04,18.90
2012,06,20,14,05,19.00
2012,06,20,14,06,19.10
2012,06,20,14,07,18.90
2012,06,20,14,08,18.80
2012,06,20,14,09,18.70
2012,06,20,14,10,18.70
2012,06,20,14,11,18.70
2012,06,20,14,12,18.70
2012,06,20,14,13,18.60
2012,06,20,14,14,18.60
2012,06,20,14,15,18.60
2012,06,20,14,16,18.70
2012,06,20,14,17,18.80
2012,06,20,14,18,18.80
2012,06,20,14,19,18.80
2012,06,20,14,20,18.80
2012,06,20,14,21,18.80
2012,06,20,14,22,18.80
2012,06,20,14,23,18.90
2012,06,20,14,24,19.00
2012,06,20,14,25,19.10
2012,06,20,14,26,19.20
2012,06,20,14,27,19.20
2012,06,20,14,28,19.30
2012,06,20,14,29,19.40
2012,06,20,14,30,19.40
2012,06,20,14,31,19.40
2012,06,20,14,32,19.40
2012,06,20,14,33,19.40
2012,06,20,14,34,19.30
2012,06,20,14,35,19.30
2012,06,20,14,36,19.40
2012,06,20,14,37,19.50
2012,06,20,14,38,19.60
2012,06,20,14,39,19.70
2012,06,20,14,40,19.50
2012,06,20,14,41,19.30
2012,06,20,14,42,19.10
2012,06,20,14,43,19.00
2012,06,20,14,44,19.00
2012,06,20,14,45,18.90
2012,06,20,14,46,18.80
2012,06,20,14,47,18.70
2012,06,20,14,48,18.60
2012,06,20,14,49,18.50
2012,06,20,14,50,18.40
2012,06,20,14,51,18.40
2012,06,20,14,52,18.30
2012,06,20,14,53,18.30
2012,06,20,14,54,18.30
2012,06,20,14,55,18.30
2012,06,20,14,56,18.30
2012,06,20,14,57,18.30
2012,06,20,14,58,18.30
2012,06,20,14,59,18.30
2012,06,20,15,00,18.30
2012,06,20,15,01,18.30
2012,06,20,15,02,18.40
2012,06,20,15,03,18.40
2012,06,20,15,04,18.50
2012,06,20,15,05,18.60
2012,06,20,15,06,18.80
2012,06,20,15,07,18.80
2012,06,20,15,08,18.90
2012,06,20,15,09,18.90
2012,06,20,15,10,18.90
2012,06,20,15,11,19.00
2012,06,20,15,12,19.00
2012,06,20,15,13,19.00
2012,06,20,15,14,19.00
2012,06,20,15,15,19.20
2012,06,20,15,16,19.50
2012,06,20,15,17,19.60
2012,06,20,15,18,19.50
2012,06,20,15,19,19.40
2012,06,20,15,20,19.40
2012,06,20,15,21,19.30
2012,06,20,15,22,19.30
2012,06,20,15,23,19.20
2012,06,20,15,24,19.10
2012,06,20,15,25,19.00
2012,06,20,15,26,18.90
2012,06,20,15,27,18.90
2012,06,20,15,28,18.80
2012,06,20,15,29,18.90
2012,06,20,15,30,19.00
2012,06,20,15,31,19.00
2012,06,20,15,32,19.10
2012,06,20,15,33,19.10
2012,06,20,15,34,19.30
2012,06,20,15,35,19.40
2012,06,20,15,36,19.50
2012,06,20,15,37,19.60
2012,06,20,15,38,19.80
2012,06,20,15,39,19.90
2012,06,20,15,40,20.10
2012,06,20,15,41,20.20
2012,06,20,15,42,20.40
2012,06,20,15,43,20.50
2012,06,20,15,44,20.60
2012,06,20,15,45,20.60
2012,06,20,15,46,20.50
2012,06,20,15,47,20.30
2012,06,20,15,48,20.00
2012,06,20,15,49,19.80
2012,06,20,15,50,19.70
2012,06,20,15,51,19.60
2012,06,20,15,52,19.60
2012,06,20,15,53,19.60
2012,06,20,15,54,19.70
2012,06,20,15,55,19.60
2012,06,20,15,56,19.50
2012,06,20,15,57,19.40
2012,06,20,15,58,19.20
2012,06,20,15,59,19.10
2012,06,20,16,00,19.10
2012,06,20,16,01,19.00
2012,06,20,16,02,18.90
2012,06,20,16,03,18.90
2012,06,20,16,04,19.00
2012,06,20,16,05,18.90
2012,06,20,16,06,18.90
2012,06,20,16,07,19.00
2012,06,20,16,08,19.10
2012,06,20,16,09,19.20
2012,06,20,16,10,19.20
2012,06,20,16,11,19.10
2012,06,20,16,12,19.10
2012,06,20,16,13,19.10
2012,06,20,16,14,19.10
2012,06,20,16,15,19.20
2012,06,20,16,16,19.10
2012,06,20,16,17,19.10
2012,06,20,16,18,19.10
2012,06,20,16,19,19.10
2012,06,20,16,20,19.20
2012,06,20,16,21,19.10
2012,06,20,16,22,19.10
2012,06,20,16,23,19.00
2012,06,20,16,24,18.90
2012,06,20,16,25,18.90
2012,06,20,16,26,18.90
2012,06,20,16,27,19.00
2012,06,20,16,28,19.00
2012,06,20,16,29,19.10
2012,06,20,16,30,19.10
2012,06,20,16,31,19.20
2012,06,20,16,32,19.20
2012,06,20,16,33,19.30
2012,06,20,16,34,19.40
2012,06,20,16,35,19.60
2012,06,20,16,36,19.70
2012,06,20,16,37,19.70
2012,06,20,16,38,19.80
2012,06,20,16,39,19.90
2012,06,20,16,40,20.00
2012,06,20,16,41,20.00
2012,06,20,16,42,19.90
2012,06,20,16,43,19.80
2012,06,20,16,44,19.70
2012,06,20,16,45,19.60
2012,06,20,16,46,19.50
2012,06,20,16,47,19.50
2012,06,20,16,48,19.50
2012,06,20,16,49,19.50
2012,06,20,16,50,19.50
2012,06,20,16,51,19.60
2012,06,20,16,52,19.50
2012,06,20,16,53,19.50
2012,06,20,16,54,19.60
2012,06,20,16,55,19.70
2012,06,20,16,56,19.70
2012,06,20,16,57,19.70
2012,06,20,16,58,19.70
2012,06,20,16,59,19.60
2012,06,20,17,00,19.60
2012,06,20,17,01,19.50
2012,06,20,17,02,19.60
2012,06,20,17,03,19.50
2012,06,20,17,04,19.40
2012,06,20,17,05,19.40
2012,06,20,17,06,19.50
2012,06,20,17,07,19.50
2012,06,20,17,08,19.60
2012,06,20,17,09,19.60
2012,06,20,17,10,19.60
2012,06,20,17,11,19.60
2012,06,20,17,12,19.60
2012,06,20,17,13,19.50
2012,06,20,17,14,19.40
2012,06,20,17,15,19.30
2012,06,20,17,16,19.30
2012,06,20,17,17,19.40
2012,06,20,17,18,19.40
2012,06,20,17,19,19.40
2012,06,20,17,20,19.50
2012,06,20,17,21,19.70
2012,06,20,17,22,19.80
2012,06,20,17,23,19.80
2012,06,20,17,24,19.80